Torna al catalogo

FENGYUN 1C DEB

AttivoSSO
NORAD 30063·DEBRIS·🇨🇳 China

Lanciato May 10, 1999 da Taiyuan Satellite Launch Center

Loading…

Prossimi Passaggi (prossime 24 ore)

TLE

AggiornatoSource: Space-Track

Epoca: Sep 14, 2026, 21:10 UTC

1 30063U 99025PQ  26257.88247819  .00000066  00000-0  54520-4 0  9998
2 30063  98.5546 230.1603 0033283  62.6859 326.7164 14.15694091 15736

Traccia FENGYUN 1C DEB in tempo reale con AllMySat

Download on the App Store